User: anonymous   Login
Location: Unspecified
(48.1170°N, 0.0000°E)
Time: 04:44:11
(UTC+00:00)
Language:

NOAA 15 - Orbit

View from above orbital plane
View from above orbital plane
View from above satellite
View from above satellite

Ground track
Ground track

The orbit data is extracted from the following two-line orbital elements,

1 25338U 98030A   19258.53188740  .00000017  00000-0  25680-4 0  9995
2 25338  98.7434 279.6228 0010149 351.1332   8.9667 14.25930791109903
Epoch (UTC): 15 September 2019 12:45:55
Eccentricity: 0.0010149
inclination: 98.7434°
perigee height: 798 km
apogee height: 812 km
right ascension of ascending node: 279.6228°
argument of perigee: 351.1332°
revolutions per day: 14.25930791
mean anomaly at epoch: 8.9667°
orbit number at epoch: 10990

The dashed part of the orbit path shows where the satellite is in the earth's shadow,  

DLR